Theta_e
317 316 316 316 316 316 314 318 318 317 316 316 315 313 313 315 315 315 316 316 318 319 319 319 319 320 320 320 320 322 322 323 324 323 325 326 326 326 327 327 327 328 328 328
315 314 312 314 315 318 317 318 317 315 315 315 314 315 314 314 314 315 316 317 317 318 318 319 319 319 319 318 318 318 320 321 322 323 323 324 324 324 325 326 327 327 327 327
313 312 312 314 315 317 317 317 317 317 315 314 310 311 310 310 311 313 314 315 316 317 317 317 317 317 316 315 316 316 317 318 319 321 322 323 323 324 324 325 324 324 325 325
314 312 312 313 314 315 316 315 317 317 317 316 311 315 310 310 310 309 312 313 314 314 314 314 314 314 314 314 316 316 316 316 317 320 320 321 322 323 323 323 324 325 325 326
310 312 313 313 313 314 314 314 315 315 315 313 313 314 310 308 310 309 310 311 311 312 315 317 316 315 315 316 317 317 317 316 316 318 320 319 319 319 320 321 322 323 325 326
309 310 310 311 312 313 314 315 315 314 313 314 311 312 309 310 308 308 308 311 312 314 315 314 314 314 315 315 316 317 318 319 319 319 319 319 319 320 321 321 321 322 324 324
310 310 309 312 313 313 315 315 309 310 314 312 309 310 311 309 307 306 307 311 311 311 313 313 313 313 314 314 314 315 316 316 317 316 315 315 315 317 318 319 320 321 322 323
309 310 309 309 311 312 314 314 309 308 312 310 309 312 309 308 310 311 311 312 312 313 312 313 314 314 314 314 314 314 314 314 314 315 315 315 315 315 315 314 312 312 314 316
307 308 307 307 310 311 312 316 310 309 305 307 308 307 307 308 308 309 309 311 313 312 311 314 314 314 314 313 313 312 312 312 312 312 312 312 312 313 313 313 314 313 313 312
306 308 306 308 310 311 311 310 314 314 311 310 309 310 311 309 308 306 308 310 310 309 312 314 314 314 313 313 313 312 312 311 310 310 310 310 310 311 311 311 312 312 313 313
306 307 309 309 310 310 313 313 312 310 309 310 307 307 304 307 307 307 306 308 309 312 314 314 314 313 313 312 312 312 311 310 309 309 310 310 310 310 310 310 310 311 311 312
307 307 306 309 309 309 310 312 311 311 309 309 309 310 306 305 306 307 308 309 308 313 314 313 312 311 311 312 312 312 311 310 309 309 309 310 310 310 311 311 311 311 311 311
308 309 306 304 306 307 310 309 312 312 309 311 312 310 305 305 307 311 310 310 310 313 312 312 312 311 312 312 311 311 310 309 309 309 309 308 309 309 309 310 310 311 311 311
309 307 308 308 306 306 310 310 310 312 314 312 312 311 308 309 306 310 312 312 312 313 313 312 312 312 313 311 310 309 309 309 309 308 308 308 308 308 308 308 309 309 309 308
309 306 306 307 307 308 308 309 310 311 312 312 311 310 310 307 307 309 311 311 312 312 312 312 311 311 311 311 310 309 308 308 308 308 308 308 308 307 308 307 307 307 308 308
306 305 304 306 307 306 306 308 307 310 311 311 311 310 309 309 309 309 309 309 310 310 311 312 311 311 311 309 308 307 306 306 306 306 306 305 305 305 306 307 307 306 306 307
305 305 307 309 307 305 308 307 308 308 309 310 311 310 309 308 307 308 309 310 310 311 311 312 312 310 309 308 307 305 305 305 305 305 305 305 305 305 305 305 305 305 305 305
307 306 308 308 299 309 306 305 306 307 307 308 309 309 309 309 309 309 310 310 310 310 310 311 310 309 308 306 305 305 304 304 303 303 303 302 302 303 303 304 305 306 305 304
305 307 308 309 309 306 305 304 305 306 307 306 307 308 309 309 309 309 310 310 310 310 310 310 309 308 306 304 304 303 302 301 300 300 300 300 300 300 300 301 303 304 305 305
304 306 307 307 308 308 306 305 304 304 308 307 306 307 307 307 307 309 309 310 310 310 309 308 307 305 304 303 302 300 299 299 299 298 298 298 297 298 298 298 298 299 302 303
305 307 308 309 309 304 303 302 304 308 308 307 307 306 307 305 307 308 307 307 307 307 306 304 303 302 302 300 298 298 297 297 297 297 296 295 295 295 294 295 295 296 297 299
302 304 306 307 308 308 303 301 306 306 307 305 305 306 305 306 307 307 306 306 305 304 302 301 301 300 298 297 297 297 297 297 297 296 295 295 294 294 293 293 294 294 295 296
303 305 303 306 307 306 306 306 307 305 307 306 306 306 305 304 304 304 304 303 302 300 299 298 297 297 296 296 296 296 296 295 295 295 294 294 294 294 293 293 293 293 294 294
300 301 302 304 304 302 304 305 306 306 306 307 306 306 307 306 305 303 302 300 299 297 296 295 294 295 295 295 295 295 295 295 294 294 293 293 293 293 293 293 293 293 293 293
299 300 301 300 302 301 304 304 305 306 305 305 306 305 306 306 304 303 301 299 297 296 294 293 294 294 294 294 294 294 294 293 293 293 292 292 292 292 293 292 293 292 292 292
299 301 303 303 303 304 304 305 305 303 305 305 304 304 304 305 305 301 296 296 295 294 293 293 293 293 293 293 293 293 292 292 292 292 292 292 292 291 291 291 292 292 292 291
Wind_Speed
4 3 7 7 5 2 4 1 3 3 4 3 7 8 11 23 22 24 29 25 27 32 31 31 30 28 25 24 23 19 17 18 22 25 29 32 32 32 32 33 33 33 32 32
2 9 4 2 3 2 3 1 3 6 3 2 8 16 17 22 23 26 32 35 35 32 32 30 28 27 28 30 31 28 24 20 19 21 23 28 31 32 33 34 34 33 32 33
5 3 12 4 3 9 11 15 4 7 6 4 7 9 11 7 11 22 30 38 37 36 36 35 33 29 24 22 22 29 30 28 24 20 23 26 29 32 32 32 31 27 29 30
5 5 5 5 4 6 6 6 5 4 5 4 5 8 5 6 7 6 21 23 24 24 27 27 25 24 23 20 16 21 25 26 26 24 23 23 24 27 27 30 32 35 35 34
5 5 8 5 6 7 5 5 7 5 4 4 3 4 5 4 5 11 15 21 21 14 11 17 20 13 10 8 9 10 13 17 22 26 28 28 29 30 30 32 34 35 36 36
4 1 5 8 4 10 4 4 2 2 2 7 8 7 3 4 5 4 5 8 8 5 8 4 5 7 8 7 6 6 6 8 12 15 18 21 23 25 26 28 31 33 34 34
3 4 0 3 5 1 5 4 0 1 3 6 0 4 5 9 8 7 10 23 15 9 6 13 13 13 12 10 8 6 4 4 5 8 10 13 16 20 24 26 28 30 32 33
6 3 11 6 7 7 10 7 5 8 5 4 1 7 6 5 14 17 14 16 15 5 10 13 13 12 12 9 6 4 2 2 4 6 9 12 14 17 19 20 22 25 28 30
5 5 1 4 4 9 4 11 5 5 1 2 4 7 8 9 10 10 5 6 8 5 16 15 13 10 8 6 4 3 3 4 6 8 10 13 15 18 20 21 23 24 25 25
5 1 4 7 4 4 6 6 4 3 2 5 4 5 7 8 8 7 5 7 6 17 18 15 13 9 6 5 6 7 9 10 10 11 13 14 16 18 20 22 24 26 27 28
5 3 1 7 7 15 7 7 4 5 5 4 2 5 7 9 5 8 11 11 14 18 19 15 10 7 4 3 5 7 9 10 11 13 14 16 17 19 20 23 25 27 27 27
7 3 4 8 2 2 13 6 7 4 4 4 3 12 1 4 5 6 3 0 15 20 18 14 10 6 2 2 6 9 10 11 13 15 17 19 20 20 20 20 22 24 26 27
9 4 2 6 4 3 6 14 11 12 2 13 7 10 5 8 6 5 5 9 22 21 18 13 9 6 4 5 7 9 9 10 11 13 15 16 18 18 19 20 20 21 23 25
20 4 7 10 5 5 6 8 20 15 12 19 14 26 13 2 6 7 11 16 19 18 14 12 12 10 8 9 9 10 11 11 11 12 13 14 16 17 19 21 21 21 22 23
10 6 7 12 3 3 5 9 15 17 25 17 28 21 27 10 9 14 11 9 12 14 16 19 18 14 12 13 13 13 13 11 13 15 14 14 16 18 20 20 21 21 22 22
5 7 6 10 12 11 3 4 10 20 26 19 27 23 30 12 24 24 24 22 19 24 26 24 22 20 17 16 14 12 11 10 11 13 15 17 18 19 20 20 21 22 23 22
6 7 6 16 9 5 7 18 21 14 17 18 19 30 29 15 16 28 34 34 35 38 34 26 25 24 19 16 14 13 12 11 12 13 14 17 18 20 20 21 22 22 22 22
5 6 8 10 3 16 10 13 19 23 24 19 18 22 26 26 27 31 33 37 39 37 31 28 28 25 20 17 15 12 10 10 11 13 15 17 18 20 21 22 22 23 24 24
12 9 6 5 8 12 7 7 11 11 23 27 18 26 44 21 9 19 31 36 37 36 33 30 26 23 20 17 14 11 9 8 9 10 13 15 17 19 21 22 23 24 24 24
11 11 10 10 12 16 13 25 10 5 12 21 29 27 27 12 6 19 33 37 39 35 31 26 24 21 19 16 12 9 7 7 10 12 15 17 19 21 22 23 24 26 26 25
5 7 15 13 11 7 10 3 14 12 11 30 21 37 40 12 27 33 10 21 24 25 24 24 21 19 17 14 12 9 7 8 11 13 16 18 20 22 23 23 24 25 25 25
9 7 6 7 10 19 10 2 14 15 20 17 11 18 28 31 31 34 26 22 22 24 23 22 20 18 15 12 9 8 8 11 13 16 18 20 22 23 25 26 26 25 25 26
6 11 7 9 7 8 12 18 38 25 23 23 20 21 15 19 22 21 19 23 23 22 21 20 18 16 13 10 8 8 9 11 14 16 19 21 23 24 25 26 26 26 26 25
4 4 4 3 15 9 20 33 36 40 33 29 20 18 13 13 15 18 19 24 24 22 20 18 15 12 10 8 9 10 12 14 16 19 21 23 23 24 23 22 23 24 25 26
6 6 7 6 13 4 23 28 36 29 34 26 25 22 17 15 17 20 24 26 24 21 18 15 11 9 8 9 11 12 14 17 19 20 21 22 22 23 23 23 24 24 22 23
10 9 6 12 18 18 18 16 27 25 23 30 26 20 17 16 16 18 24 24 22 19 15 12 10 9 9 10 13 14 16 18 19 19 20 21 22 23 25 26 24 23 23 22
Wind_Direction
184 183 200 193 195 139 100 266 265 287 282 295 261 274 266 278 279 274 276 276 273 270 268 267 268 270 272 269 267 264 258 260 261 255 258 260 263 265 267 271 273 274 275 272
124 235 219 93 153 171 148 207 286 283 272 250 293 286 282 269 264 260 267 271 269 272 274 273 271 270 274 276 270 261 260 262 262 260 263 265 267 268 271 273 275 277 277 276
167 225 202 165 143 219 233 245 222 254 320 280 315 275 252 278 257 261 258 261 264 266 272 276 280 279 273 271 265 256 254 256 261 265 262 265 266 268 269 273 278 282 281 280
218 236 144 144 171 164 237 190 194 265 331 262 41 293 258 267 284 278 275 268 268 269 275 276 283 278 273 268 268 260 249 247 250 255 260 264 269 271 276 279 279 279 280 281
227 181 193 174 189 176 212 163 195 202 234 307 205 254 274 335 284 265 270 288 289 288 300 283 276 258 251 236 246 251 243 244 248 253 260 264 263 268 270 271 276 279 280 282
219 309 162 196 164 173 169 208 216 110 180 265 206 186 247 216 214 282 295 359 43 26 349 32 120 150 154 155 167 186 199 221 235 245 254 259 263 268 272 272 275 279 283 284
159 212 325 147 111 126 178 141 223 343 211 232 284 199 261 259 238 228 276 295 295 325 99 105 112 124 130 136 141 148 167 203 231 255 271 280 280 277 277 278 278 277 278 279
169 272 183 187 177 177 191 190 162 196 200 259 352 237 250 233 277 276 275 281 294 279 162 137 128 127 129 132 138 141 165 244 272 278 282 285 288 289 289 290 289 287 287 286
161 257 133 194 152 147 203 210 164 100 3 10 231 289 286 280 289 298 286 285 306 211 168 156 144 133 122 112 90 54 14 332 307 298 295 292 288 286 287 287 289 290 291 292
208 195 204 205 152 215 169 160 191 175 230 246 255 264 236 303 288 308 315 238 221 164 167 160 154 145 124 85 41 14 354 340 329 320 312 305 299 297 296 295 294 291 290 289
175 163 46 135 202 193 180 213 199 174 183 202 273 258 222 237 273 283 299 287 196 168 166 165 162 157 135 68 18 352 339 331 326 325 321 316 309 304 301 299 296 294 293 291
182 166 188 212 195 207 224 213 200 185 233 252 242 254 211 250 259 196 45 64 181 174 173 179 181 170 146 354 341 334 329 329 330 331 327 322 316 312 307 303 300 298 296 296
167 205 124 327 356 15 200 222 221 227 99 226 220 260 339 209 219 247 177 159 173 182 182 187 193 205 244 294 310 309 308 311 321 323 320 320 319 319 315 312 307 303 299 297
172 170 212 219 191 147 201 205 218 214 233 247 240 260 252 326 230 214 170 172 180 185 195 212 221 228 255 273 288 294 293 296 301 302 309 317 324 329 331 327 321 313 307 304
179 215 203 243 258 221 225 210 211 208 230 228 248 246 260 208 203 204 185 192 202 215 228 233 234 238 252 275 284 283 282 289 297 300 306 316 323 328 328 328 327 325 318 311
200 232 171 252 239 229 257 240 217 219 229 237 249 256 256 250 221 227 243 249 236 246 253 243 238 242 251 265 273 276 277 290 301 310 317 325 325 324 323 323 323 323 325 325
186 200 184 244 226 145 238 233 232 238 234 224 233 243 264 251 220 225 236 246 248 254 256 240 242 248 253 261 269 271 278 291 302 311 319 320 321 322 324 325 326 327 328 327
189 217 221 243 93 241 235 235 227 233 239 236 241 256 256 253 247 245 246 243 248 250 247 241 245 244 251 257 258 261 273 287 302 310 315 317 319 322 323 324 327 328 330 333
217 228 254 250 239 254 299 246 198 198 243 239 233 243 253 258 247 251 242 241 247 251 251 247 236 236 242 244 244 256 273 289 303 314 321 326 327 329 331 330 328 327 328 331
213 216 227 235 242 256 242 244 222 108 247 250 220 241 258 171 211 250 247 240 241 247 245 230 218 225 226 228 238 246 252 275 299 312 319 323 324 324 324 326 328 330 327 328
186 208 233 242 245 254 250 117 153 190 231 247 221 228 244 206 228 256 255 233 230 230 214 205 205 206 212 217 220 233 260 290 307 314 319 322 323 324 323 324 324 325 325 326
177 175 208 229 244 257 157 29 200 212 229 240 224 252 247 237 240 245 246 233 214 207 197 196 198 200 204 212 230 258 287 304 313 319 320 321 321 320 320 321 321 321 323 325
221 210 224 195 214 218 204 223 252 239 225 226 243 251 247 241 238 235 216 203 199 197 193 192 196 198 205 219 245 271 289 302 312 315 316 316 317 317 318 319 319 319 320 323
250 172 218 63 248 223 233 225 230 229 227 237 247 231 205 237 228 218 205 194 192 192 195 195 198 203 219 243 268 287 300 309 313 315 314 314 316 316 317 319 320 321 322 321
213 149 222 254 259 289 261 236 234 242 234 238 236 227 226 213 223 213 195 192 193 194 194 196 203 220 242 266 284 297 307 311 314 314 313 315 318 318 318 320 322 322 323 321
185 213 208 251 256 221 251 236 234 235 241 237 235 221 205 212 211 209 196 187 190 192 196 205 219 239 262 279 290 303 307 308 310 312 313 315 317 318 319 318 316 317 318 317